DW3733 Weather Reports


Display with metric or nautical units.
time (UTC)temp
F
wind
direction
speed
MPH
gust
MPH
rain 1hr
in
rain 24hr
in
rain mn
in
humidity
%
barometer
mb
20260507191312 59 265 0.0 1.0 0.00 0.00 0.00 75 1012.3
20260507190809 59 132 1.0 1.0 0.00 0.00 0.00 74 1012.2
20260507190309 60 90 1.0 1.0 0.00 0.00 0.00 74 1012.1
20260507185812 60 135 1.0 1.0 0.00 0.00 0.00 73 1012.3
20260507184309 62 90 1.0 2.0 0.00 0.00 0.00 71 1012.0
20260507183809 62 276 1.0 1.0 0.00 0.00 0.00 68 1012.1
20260507183309 62 0 1.0 2.0 0.00 0.00 0.00 67 1012.1
20260507182809 63 131 1.0 1.0 0.00 0.00 0.00 66 1012.0
20260507182309 64 90 1.0 2.0 0.00 0.00 0.00 65 1012.0
20260507181809 64 94 1.0 1.0 0.00 0.00 0.00 64 1011.9
20260507181309 65 97 1.0 1.0 0.00 0.00 0.00 63 1011.9
20260507180810 65 90 1.0 2.0 0.00 0.00 0.00 62 1012.0
20260507180309 66 135 1.0 3.0 0.00 0.00 0.00 61 1011.9
20260507175809 66 315 1.0 3.0 0.00 0.00 0.00 61 1011.7
20260507174318 67 315 2.0 3.0 0.00 0.00 0.00 60 1011.9
20260507173809 67 0 1.0 3.0 0.00 0.00 0.00 60 1012.2
20260507173310 67 315 2.0 3.0 0.00 0.00 0.00 60 1012.2
20260507172810 68 335 2.0 7.0 0.00 0.00 0.00 60 1012.1
20260507172319 68 356 2.0 3.0 0.00 0.00 0.00 60 1012.0
20260507170809 68 336 2.0 3.0 0.00 0.00 0.00 60 1011.9
20260507170310 69 90 1.0 5.0 0.00 0.00 0.00 60 1012.0
20260507165809 69 0 2.0 5.0 0.00 0.00 0.00 59 1012.0
20260507165312 69 110 3.0 5.0 0.00 0.00 0.00 59 1012.0
20260507164818 70 345 2.0 5.0 0.00 0.00 0.00 58 1012.1
20260507162809 70 125 3.0 7.0 0.00 0.00 0.00 56 1012.0
20260507162312 70 0 2.0 6.0 0.00 0.00 0.00 56 1012.1
20260507160809 71 324 3.0 6.0 0.00 0.00 0.00 56 1011.8
20260507154811 72 315 5.0 8.0 0.00 0.00 0.00 55 1011.9
20260507154310 72 353 3.0 6.0 0.00 0.00 0.00 55 1011.9
20260507153809 73 315 2.0 7.0 0.00 0.00 0.00 55 1011.8
20260507152809 73 310 2.0 8.0 0.00 0.00 0.00 56 1011.7
20260507151811 73 352 5.0 8.0 0.00 0.00 0.00 56 1011.9
20260507151309 73 270 2.0 7.0 0.00 0.00 0.00 57 1012.0
20260507150810 73 82 5.0 8.0 0.00 0.00 0.00 55 1012.1
20260507150312 73 141 2.0 8.0 0.00 0.00 0.00 56 1012.0
20260507145810 73 83 3.0 8.0 0.00 0.00 0.00 55 1012.1
20260507145312 74 315 3.0 6.0 0.00 0.00 0.00 56 1012.2
20260507144809 73 135 4.0 6.0 0.00 0.00 0.00 55 1012.2
20260507143809 73 0 4.0 6.0 0.00 0.00 0.00 54 1012.6
20260507143309 73 318 3.0 8.0 0.00 0.00 0.00 55 1012.6
20260507142810 74 319 4.0 8.0 0.00 0.00 0.00 55 1012.5
20260507142309 74 321 4.0 8.0 0.00 0.00 0.00 57 1012.7
20260507141809 73 0 5.0 8.0 0.00 0.00 0.00 56 1012.4
20260507141309 73 357 2.0 9.0 0.00 0.00 0.00 56 1012.6
20260507140809 74 357 3.0 6.0 0.00 0.00 0.00 54 1012.8
20260507140309 74 315 2.0 8.0 0.00 0.00 0.00 53 1012.9
20260507134809 74 315 6.0 10.0 0.00 0.00 0.00 53 1012.9
20260507134309 75 340 6.0 8.0 0.00 0.00 0.00 54 1012.9
20260507133809 75 0 4.0 8.0 0.00 0.00 0.00 55 1012.9
20260507133309 75 337 3.0 10.0 0.00 0.00 0.00 55 1012.7
20260507132808 75 0 5.0 8.0 0.00 0.00 0.00 54 1012.8
20260507132309 75 335 6.0 10.0 0.00 0.00 0.00 54 1013.0
20260507131312 74 0 3.0 8.0 0.00 0.00 0.00 55 1013.1
20260507130812 75 87 6.0 8.0 0.00 0.00 0.00 56 1013.2
20260507130309 74 0 5.0 8.0 0.00 0.00 0.00 56 1013.4
20260507125809 74 357 6.0 8.0 0.00 0.00 0.00 55 1013.5
20260507125311 74 323 4.0 8.0 0.00 0.00 0.00 56 1013.3
20260507124309 74 130 3.0 6.0 0.00 0.00 0.00 57 1013.5
20260507123813 74 90 3.0 6.0 0.00 0.00 0.00 59 1013.6
20260507123309 74 0 3.0 8.0 0.00 0.00 0.00 60 1013.6
20260507122809 74 354 4.0 7.0 0.00 0.00 0.00 59 1013.6
20260507122310 73 318 4.0 6.0 0.00 0.00 0.00 59 1013.6
20260507121309 73 315 4.0 6.0 0.00 0.00 0.00 59 1013.7
20260507120810 74 270 3.0 3.0 0.00 0.00 0.00 57 1013.8
20260507120308 74 270 3.0 5.0 0.00 0.00 0.00 57 1013.9
20260507115809 74 285 3.0 8.0 0.00 0.00 0.00 58 1013.9
20260507115308 74 87 3.0 6.0 0.00 0.00 0.00 60 1014.0
20260507114810 73 276 3.0 6.0 0.00 0.00 0.00 60 1014.1
20260507112809 72 315 2.0 8.0 0.00 0.00 0.00 60 1014.5
20260507112312 73 315 3.0 6.0 0.00 0.00 0.00 60 1014.4
20260507111810 73 0 3.0 5.0 0.00 0.00 0.00 61 1014.4
20260507111308 72 232 3.0 6.0 0.00 0.00 0.00 62 1014.6
20260507110310 72 0 3.0 6.0 0.00 0.00 0.00 61 1014.6
20260507105810 72 319 2.0 9.0 0.00 0.00 0.00 62 1014.5
20260507105309 72 3 5.0 9.0 0.00 0.00 0.00 62 1014.8
20260507104809 71 318 4.0 7.0 0.00 0.00 0.00 62 1014.7
20260507104309 71 0 3.0 9.0 0.00 0.00 0.00 65 1014.3
20260507103809 71 0 6.0 8.0 0.00 0.00 0.00 64 1014.6
20260507103308 71 356 4.0 6.0 0.00 0.00 0.00 62 1014.8
20260507102810 71 320 3.0 8.0 0.00 0.00 0.00 63 1014.8
20260507102309 71 183 2.0 5.0 0.00 0.00 0.00 67 1014.8
20260507101809 71 315 3.0 8.0 0.00 0.00 0.00 68 1014.9
20260507101310 71 0 5.0 8.0 0.00 0.00 0.00 67 1015.0
20260507100808 71 350 4.0 9.0 0.00 0.00 0.00 66 1015.1
20260507100318 71 315 8.0 9.0 0.00 0.00 0.00 66 1014.8
20260507094808 70 90 3.0 7.0 0.00 0.00 0.00 68 1015.1
20260507094312 70 0 4.0 7.0 0.00 0.00 0.00 68 1015.2
20260507093809 70 350 5.0 8.0 0.00 0.00 0.00 68 1015.2
20260507093308 69 315 3.0 6.0 0.00 0.00 0.00 67 1015.2
20260507092810 70 0 3.0 8.0 0.00 0.00 0.00 67 1015.1
20260507092308 70 340 5.0 8.0 0.00 0.00 0.00 66 1015.1
20260507091810 70 358 3.0 6.0 0.00 0.00 0.00 66 1015.2
20260507090809 71 276 3.0 6.0 0.00 0.00 0.00 62 1015.1
20260507090309 72 315 2.0 3.0 0.00 0.00 0.00 62 1015.2
20260507085809 72 310 1.0 3.0 0.00 0.00 0.00 66 1015.3
20260507085308 71 176 1.0 3.0 0.00 0.00 0.00 71 1015.3
20260507084809 70 356 2.0 3.0 0.00 0.00 0.00 71 1015.3
20260507084309 69 320 2.0 3.0 0.00 0.00 0.00 73 1015.4
20260507083808 68 225 1.0 3.0 0.00 0.00 0.00 74 1015.6
20260507082809 67 139 1.0 3.0 0.00 0.00 0.00 75 1015.7
20260507082309 66 228 1.0 1.0 0.00 0.00 0.00 76 1015.7
20260507081809 66 103 1.0 3.0 0.00 0.00 0.00 76 1015.6
20260507081309 66 219 1.0 3.0 0.00 0.00 0.00 76 1015.8
20260507080822 66 90 1.0 3.0 0.00 0.00 0.00 77 1015.9
20260507080308 66 90 0.0 1.0 0.00 0.00 0.00 78 1015.8
20260507075809 66 221 1.0 1.0 0.00 0.00 0.00 78 1016.0
20260507075309 65 225 1.0 1.0 0.00 0.00 0.00 78 1016.1
20260507074809 65 183 0.0 1.0 0.00 0.00 0.00 79 1016.1
20260507073809 65 311 1.0 1.0 0.00 0.00 0.00 80 1016.1
20260507073309 65 270 1.0 1.0 0.00 0.00 0.00 80 1016.1
20260507072809 64 356 1.0 2.0 0.00 0.00 0.00 80 1015.9
20260507071308 64 333 1.0 3.0 0.00 0.00 0.00 81 1015.9
20260507070809 64 0 2.0 5.0 0.00 0.00 0.00 82 1016.1
20260507070310 64 0 3.0 5.0 0.00 0.00 0.00 82 1016.1
20260507065309 64 311 0.0 2.0 0.00 0.00 0.00 83 1016.1
20260507063809 63 318 2.0 3.0 0.00 0.00 0.00 84 1016.1
20260507060309 63 315 0.0 1.0 0.00 0.00 0.00 84 1016.4
20260507055811 63 315 1.0 1.0 0.00 0.00 0.00 85 1016.3
20260507055309 63 332 1.0 2.0 0.00 0.00 0.00 85 1016.3
20260507054310 63 276 2.0 3.0 0.00 0.00 0.00 87 1016.3
20260507053809 62 324 1.0 2.0 0.00 0.00 0.00 87 1016.4
20260507053312 62 180 1.0 2.0 0.00 0.00 0.00 88 1016.5
20260507052808 62 319 0.0 1.0 0.00 0.00 0.00 91 1016.4
20260507051809 61 318 0.0 1.0 0.00 0.00 0.00 91 1016.3
20260507050809 61 261 1.0 1.0 0.00 0.00 0.00 91 1016.6
20260507045309 61 135 0.0 0.0 0.00 0.00 0.00 90 1016.3
20260507044809 61 135 0.0 0.0 0.00 0.00 0.00 90 1016.3
20260507044309 61 0 0.0 0.0 0.00 0.00 0.00 90 1016.2
20260507043809 61 0 0.0 0.0 0.00 0.00 0.00 90 1016.1
20260507043308 61 6 0.0 0.0 0.00 0.00 0.00 90 1016.1
20260507042810 61 225 0.0 0.0 0.00 0.00 0.00 90 1016.1
20260507042309 61 225 0.0 0.0 0.00 0.00 0.00 90 1016.0
20260507041809 61 225 0.0 1.0 0.00 0.00 0.00 91 1016.0
20260507041308 61 225 1.0 1.0 0.00 0.00 0.00 91 1016.1
20260507040810 61 315 1.0 1.0 0.00 0.00 0.00 91 1016.1
20260507040309 61 0 0.0 1.0 0.00 0.00 0.00 91 1015.9
20260507035809 61 228 0.0 1.0 0.00 0.00 0.00 91 1016.0
20260507035309 61 225 1.0 1.0 0.00 0.00 0.00 90 1015.9
20260507034309 60 225 0.0 0.0 0.00 0.00 0.00 90 1015.5
20260507033812 60 267 0.0 1.0 0.00 0.00 0.00 90 1015.7
20260507033308 60 270 1.0 1.0 0.00 0.00 0.00 90 1015.5
20260507032809 60 0 1.0 1.0 0.00 0.00 0.00 89 1015.6
20260507032310 60 94 1.0 2.0 0.00 0.00 0.00 89 1015.6
20260507031810 60 225 0.0 0.0 0.00 0.00 0.00 88 1015.9
20260507030810 60 225 1.0 1.0 0.00 0.00 0.00 87 1015.5
20260507030310 60 0 1.0 1.0 0.00 0.00 0.00 87 1015.2
20260507025808 60 315 1.0 1.0 0.00 0.00 0.00 87 1015.5
20260507024808 61 90 1.0 2.0 0.00 0.00 0.00 87 1014.9
20260507024309 61 85 1.0 2.0 0.00 0.00 0.00 88 1014.8
20260507023809 61 351 1.0 2.0 0.00 0.00 0.00 88 1015.2
20260507023312 61 225 1.0 3.0 0.00 0.00 0.00 89 1015.3
20260507022808 60 208 2.0 6.0 0.00 0.00 0.00 88 1015.0
20260507022310 60 225 3.0 3.0 0.00 0.00 0.00 88 1014.6
20260507021809 60 225 0.0 1.0 0.00 0.00 0.00 88 1015.4
20260507020814 60 219 0.0 1.0 0.00 0.00 0.00 88 1015.5
20260507020308 60 112 0.0 1.0 0.00 0.00 0.00 88 1015.5
20260507014809 60 85 1.0 1.0 0.00 0.00 0.00 87 1015.6
20260507014308 60 90 1.0 2.0 0.00 0.00 0.00 86 1015.7
20260507013809 60 95 1.0 2.0 0.00 0.00 0.00 86 1015.8
20260507013309 61 225 0.0 0.0 0.00 0.00 0.00 86 1015.8
20260507012808 61 307 0.0 1.0 0.00 0.00 0.00 86 1015.4
20260507012308 60 315 1.0 1.0 0.00 0.00 0.00 86 1015.3
20260507011808 60 227 0.0 0.0 0.00 0.00 0.00 86 1015.2
20260507010812 61 84 0.0 2.0 0.00 0.00 0.00 86 1015.1
20260507010312 61 90 1.0 2.0 0.00 0.00 0.00 86 1015.3
20260507005809 61 0 1.0 1.0 0.00 0.00 0.00 86 1015.3
20260507005309 61 84 1.0 2.0 0.00 0.00 0.00 86 1015.5
20260507004811 61 6 0.0 1.0 0.00 0.00 0.00 86 1015.6
20260507004308 61 315 0.0 1.0 0.00 0.00 0.00 86 1015.7
20260507003808 61 90 1.0 1.0 0.00 0.00 0.00 86 1015.6
20260507003309 61 90 0.0 1.0 0.00 0.00 0.00 86 1015.5
20260507002809 61 139 0.0 1.0 0.00 0.00 0.00 86 1015.3
20260507002310 61 225 0.0 1.0 0.00 0.00 0.00 87 1015.3
20260507001812 61 180 0.0 1.0 0.00 0.00 0.00 87 1015.1
20260507000809 61 225 1.0 1.0 0.00 0.00 0.00 87 1014.9
20260507000309 61 225 1.0 3.0 0.00 0.00 0.00 88 1015.0
20260506235817 61 90 2.0 3.0 0.00 0.00 0.00 88 1015.0
20260506235309 60 90 2.0 6.0 0.00 0.00 0.00 88 1015.1
20260506234809 60 90 3.0 5.0 0.00 0.00 0.00 88 1014.9
20260506234309 60 93 2.0 5.0 0.00 0.00 0.00 88 1015.0
20260506233808 60 180 2.0 3.0 0.00 0.00 0.00 88 1014.8
20260506233309 60 205 2.0 3.0 0.00 0.00 0.00 87 1014.6
20260506232308 61 184 1.0 2.0 0.00 0.00 0.00 87 1014.6
20260506231809 61 180 1.0 3.0 0.00 0.00 0.00 87 1014.4
20260506231309 61 179 1.0 2.0 0.00 0.00 0.00 87 1013.9
20260506230814 61 90 1.0 2.0 0.00 0.00 0.00 87 1013.7
20260506230308 61 0 2.0 6.0 0.00 0.00 0.00 87 1014.1
20260506225309 62 221 1.0 1.0 0.00 0.00 0.00 88 1014.4
20260506224809 61 225 0.0 2.0 0.00 0.00 0.00 89 1014.1
20260506223813 61 0 0.0 2.0 0.00 0.00 0.00 90 1014.4
20260506223308 61 353 1.0 2.0 0.00 0.00 0.00 90 1014.6
20260506222309 60 180 0.0 1.0 0.00 0.00 0.00 91 1014.7
20260506221308 60 315 0.0 1.0 0.00 0.00 0.00 91 1014.5
20260506220817 60 138 0.0 1.0 0.00 0.00 0.00 91 1014.4
20260506215312 60 6 1.0 2.0 0.00 0.00 0.00 89 1014.4
20260506214808 60 126 1.0 2.0 0.00 0.00 0.00 89 1014.2
20260506214309 60 0 1.0 2.0 0.00 0.00 0.00 89 1014.4
20260506213809 60 183 1.0 1.0 0.00 0.00 0.00 89 1014.3
20260506213308 60 315 0.0 1.0 0.00 0.00 0.00 89 1014.1
20260506212308 61 90 0.0 1.0 0.00 0.00 0.00 89 1014.2
20260506211809 61 219 0.0 1.0 0.00 0.00 0.00 89 1014.1
20260506211309 61 140 0.0 0.0 0.00 0.00 0.00 89 1014.0
20260506210809 61 315 0.0 1.0 0.00 0.00 0.00 89 1014.0
20260506210308 61 184 0.0 1.0 0.00 0.00 0.00 89 1014.0
20260506205808 61 320 0.0 0.0 0.00 0.00 0.00 89 1014.0
20260506205309 61 90 0.0 0.0 0.00 0.00 0.00 89 1014.1
20260506204308 61 135 0.0 0.0 0.00 0.00 0.00 89 1014.3
20260506203808 61 270 0.0 1.0 0.00 0.00 0.00 89 1014.4
20260506202809 61 90 0.0 1.0 0.00 0.00 0.00 88 1014.7
20260506201809 61 90 1.0 1.0 0.00 0.00 0.00 87 1014.7
20260506200810 61 85 0.0 1.0 0.00 0.00 0.00 86 1014.8
20260506195809 62 356 0.0 0.0 0.00 0.00 0.00 86 1014.9
20260506195309 62 315 0.0 0.0 0.00 0.00 0.00 86 1014.8
20260506194808 62 315 0.0 0.0 0.00 0.00 0.00 85 1014.7
20260506194318 62 270 0.0 1.0 0.00 0.00 0.00 85 1014.6
20260506193308 62 90 1.0 1.0 0.00 0.00 0.00 84 1014.5
20260506192809 62 90 0.0 1.0 0.00 0.00 0.00 84 1014.4
20260506192318 62 96 0.0 0.0 0.00 0.00 0.00 83 1014.5
20260506191808 62 270 0.0 1.0 0.00 0.00 0.00 83 1014.4